Weather History for KPKV - February, 2014

Change the Weather History Date:

Friday, February 21, 2014

  Actual Average (KVCT) Record (KVCT)
Temperature  
Mean Temperature 54 °F 58 °F  
Max Temperature 66 °F 69 °F 89 °F (1909)
Min Temperature 43 °F 48 °F 30 °F (1921)
Degree Days  
Heating Degree Days 10 8  
Month to date heating degree days 193  
Since 1 July heating degree days 1045  
Cooling Degree Days 0 1  
Month to date cooling degree days 21  
Year to date cooling degree days 35  
Growing Degree Days 4 (Base 50)    
Moisture  
Dew Point 39 °F    
Average Humidity 55    
Maximum Humidity 84    
Minimum Humidity 28    
Precipitation  
Precipitation 0.00 in 0.07 in 2.51 in (1969)
Month to date precipitation 1.54  
Year to date precipitation 4.06  
Snow  
Snow 0.00 in - - ()
Month to date snowfall  
Since 1 July snowfall  
Snow Depth -    
Sea Level Pressure  
Sea Level Pressure 30.12 in    
Wind  
Wind Speed 12 mph (East)    
Max Wind Speed 20 mph    
Max Gust Speed 24 mph    
Visibility 10 miles    
Events      
T = Trace of Precipitation, MM = Missing Value Source: NWS Daily Summary

Daily Weather History Graph

Daily Weather History Graph

Search for Another Location

Airport or City:

Trip Planner

Search our weather history database for the weather conditions in past years. The results will help you decide how hot, cold, wet, or windy it might be!

Date:

Astronomy

Feb. 21, 2014 Rise Set
Actual Time 6:59 AM CST 6:21 PM CST
Civil Twilight 6:35 AM CST 6:45 PM CST
Nautical Twilight 6:08 AM CST 7:12 PM CST
Astronomical Twilight 5:40 AM CST 7:40 PM CST
Moon No Moon Rise 10:57 AM CST (2/21)
Length of Visible Light 12h 09m
Length of Day
11h 21m
Waning Gibbous, 60% of the Moon is Illuminated
Feb 21
Waning Gibbous
Feb 22
Last Quarter
Mar 1
New
Mar 8
First Quarter
Mar 16
Full

Hourly Weather History & Observations

Time (CST) Temp. Windchill Dew Point Humidity Pressure Visibility Wind Dir Wind Speed Gust Speed Precip Events Conditions
12:15 AM 57.9 °F - 40.3 °F 52% 30.05 in 10.0 mi NNE 15.0 mph - N/A   Clear
12:35 AM 57.0 °F - 41.0 °F 55% 30.06 in 10.0 mi NNE 12.7 mph - N/A   Clear
12:55 AM 56.3 °F - 41.5 °F 58% 30.06 in 10.0 mi NNE 15.0 mph - N/A   Clear
1:15 AM 55.2 °F - 42.1 °F 61% 30.07 in 10.0 mi NNE 11.5 mph - N/A   Clear
1:35 AM 54.5 °F - 41.2 °F 61% 30.08 in 10.0 mi NNE 11.5 mph - N/A   Clear
1:55 AM 53.2 °F - 41.4 °F 64% 30.09 in 10.0 mi NNE 5.8 mph - N/A   Clear
2:15 AM 52.0 °F - 40.3 °F 64% 30.09 in 10.0 mi NNE 8.1 mph - N/A   Clear
2:35 AM 54.1 °F - 39.0 °F 57% 30.10 in 10.0 mi NNE 12.7 mph 18.4 mph N/A   Clear
2:55 AM 54.0 °F - 39.2 °F 57% 30.10 in 10.0 mi NNE 12.7 mph 21.9 mph N/A   Clear
3:15 AM 53.2 °F - 40.1 °F 61% 30.10 in 10.0 mi NNE 13.8 mph - N/A   Clear
3:35 AM 52.2 °F - 40.6 °F 65% 30.11 in 10.0 mi NE 10.4 mph - N/A   Clear
3:55 AM 50.7 °F - 41.0 °F 69% 30.11 in 10.0 mi NE 9.2 mph - N/A   Clear
4:15 AM 50.2 °F - 41.2 °F 71% 30.11 in 10.0 mi NE 9.2 mph - N/A   Clear
4:35 AM 50.0 °F - 41.0 °F 71% 30.12 in 10.0 mi NNE 9.2 mph - N/A   Clear
4:55 AM 49.1 °F - 40.8 °F 73% 30.13 in 10.0 mi NNE 6.9 mph - N/A   Clear
5:15 AM 47.7 °F - 40.3 °F 76% 30.13 in 10.0 mi NNE 5.8 mph - N/A   Clear
5:35 AM 45.9 °F 44.6 °F 39.7 °F 79% 30.14 in 10.0 mi NNE 3.5 mph - N/A   Clear
5:55 AM 45.7 °F 43.4 °F 38.5 °F 76% 30.14 in 10.0 mi North 4.6 mph - N/A   Clear
6:15 AM 44.8 °F 41.6 °F 39.0 °F 80% 30.15 in 10.0 mi NNE 5.8 mph - N/A   Clear
6:35 AM 44.6 °F 41.4 °F 38.8 °F 80% 30.15 in 10.0 mi NNE 5.8 mph - N/A   Clear
6:55 AM 43.9 °F 39.9 °F 39.2 °F 84% 30.16 in 10.0 mi NNE 6.9 mph - N/A   Clear
7:15 AM 44.4 °F 41.2 °F 39.9 °F 84% 30.16 in 10.0 mi ENE 5.8 mph - N/A   Clear
7:35 AM 49.6 °F - 40.8 °F 72% 30.16 in 10.0 mi ENE 9.2 mph - N/A   Clear
7:55 AM 51.4 °F - 42.3 °F 71% 30.17 in 10.0 mi ENE 8.1 mph - N/A   Clear
8:15 AM 54.3 °F - 42.6 °F 65% 30.18 in 10.0 mi ENE 8.1 mph - N/A   Clear
8:35 AM 56.3 °F - 41.9 °F 59% 30.19 in 10.0 mi East 10.4 mph - N/A   Clear
8:55 AM 57.2 °F - 41.7 °F 56% 30.19 in 10.0 mi ENE 10.4 mph - N/A   Clear
9:15 AM 58.1 °F - 41.4 °F 54% 30.19 in 10.0 mi ENE 10.4 mph - N/A   Clear
9:35 AM 59.2 °F - 41.0 °F 51% 30.19 in 10.0 mi ENE 13.8 mph 17.3 mph N/A   Clear
9:55 AM 60.3 °F - 36.0 °F 40% 30.19 in 10.0 mi East 15.0 mph - N/A   Clear
10:15 AM 61.7 °F - 34.9 °F 37% 30.19 in 10.0 mi East 12.7 mph - N/A   Clear
10:35 AM 62.8 °F - 33.4 °F 33% 30.19 in 10.0 mi East 16.1 mph - N/A   Clear
10:55 AM 64.2 °F - 33.1 °F 31% 30.19 in 10.0 mi East 13.8 mph - N/A   Clear
11:15 AM 64.6 °F - 31.5 °F 29% 30.19 in 10.0 mi East 15.0 mph - N/A   Clear
11:35 AM 65.8 °F - 32.0 °F 28% 30.19 in 10.0 mi East 16.1 mph 20.7 mph N/A   Clear
11:55 AM 66.2 °F - 36.0 °F 33% 30.18 in 10.0 mi SE 13.8 mph - N/A   Clear
12:15 PM 65.5 °F - 34.2 °F 31% 30.18 in 10.0 mi ESE 15.0 mph - N/A   Clear
12:35 PM 65.3 °F - 34.2 °F 31% 30.17 in 10.0 mi SE 16.1 mph - N/A   Clear
12:55 PM 64.9 °F - 33.4 °F 31% 30.15 in 10.0 mi SE 17.3 mph 23.0 mph N/A   Clear
1:15 PM 65.1 °F - 34.2 °F 32% 30.14 in 10.0 mi ESE 17.3 mph - N/A   Clear
1:35 PM 64.9 °F - 33.3 °F 31% 30.14 in 10.0 mi ESE 18.4 mph - N/A   Clear
1:55 PM 65.1 °F - 32.0 °F 29% 30.12 in 10.0 mi SE 19.6 mph - N/A   Clear
2:15 PM 63.7 °F - 35.1 °F 34% 30.11 in 10.0 mi ESE 17.3 mph - N/A   Clear
2:35 PM 65.1 °F - 33.8 °F 31% 30.10 in 10.0 mi ESE 18.4 mph - N/A   Clear
2:55 PM 65.5 °F - 32.2 °F 29% 30.10 in 10.0 mi ESE 19.6 mph 24.2 mph N/A   Clear
3:15 PM 64.9 °F - 31.3 °F 28% 30.10 in 10.0 mi ESE 16.1 mph - N/A   Clear
3:35 PM 63.7 °F - 30.7 °F 29% 30.09 in 10.0 mi ESE 16.1 mph - N/A   Clear
3:55 PM 62.8 °F - 34.7 °F 35% 30.09 in 10.0 mi ESE 19.6 mph 23.0 mph N/A   Clear
4:15 PM 63.0 °F - 36.1 °F 37% 30.08 in 10.0 mi SE 19.6 mph 23.0 mph N/A   Clear
4:35 PM 61.7 °F - 36.0 °F 38% 30.08 in 10.0 mi ESE 17.3 mph - N/A   Clear
4:55 PM 60.8 °F - 35.8 °F 39% 30.08 in 10.0 mi ESE 15.0 mph 20.7 mph N/A   Clear
5:15 PM 59.9 °F - 37.4 °F 43% 30.08 in 10.0 mi ESE 16.1 mph - N/A   Clear
5:35 PM 59.0 °F - 39.7 °F 49% 30.08 in 10.0 mi ESE 12.7 mph - N/A   Clear
5:55 PM 58.6 °F - 39.0 °F 48% 30.08 in 10.0 mi ESE 11.5 mph - N/A   Clear
6:15 PM 58.1 °F - 38.8 °F 49% 30.08 in 10.0 mi ESE 10.4 mph - N/A   Clear
6:35 PM 56.8 °F - 39.6 °F 52% 30.08 in 10.0 mi ESE 9.2 mph - N/A   Clear
6:55 PM 56.1 °F - 41.2 °F 57% 30.08 in 10.0 mi ESE 9.2 mph - N/A   Clear
7:15 PM 55.9 °F - 40.5 °F 56% 30.08 in 10.0 mi ESE 8.1 mph - N/A   Clear
7:35 PM 55.0 °F - 41.0 °F 59% 30.08 in 10.0 mi ESE 5.8 mph - N/A   Clear
7:55 PM 54.5 °F - 41.0 °F 60% 30.08 in 10.0 mi ESE 6.9 mph - N/A   Clear
8:15 PM 54.5 °F - 41.5 °F 62% 30.08 in 10.0 mi ESE 8.1 mph - N/A   Clear
8:35 PM 54.7 °F - 41.9 °F 62% 30.09 in 10.0 mi ESE 8.1 mph - N/A   Clear
8:55 PM 54.1 °F - 42.8 °F 66% 30.09 in 10.0 mi ESE 6.9 mph - N/A   Clear
9:15 PM 54.9 °F - 42.8 °F 64% 30.08 in 10.0 mi ESE 8.1 mph - N/A   Clear
9:35 PM 54.3 °F - 42.8 °F 65% 30.08 in 10.0 mi ESE 6.9 mph - N/A   Clear
9:55 PM 54.1 °F - 43.2 °F 66% 30.08 in 10.0 mi ESE 8.1 mph - N/A   Clear
10:15 PM 54.1 °F - 43.7 °F 68% 30.09 in 10.0 mi ESE 6.9 mph - N/A   Clear
10:35 PM 54.5 °F - 44.4 °F 69% 30.08 in 10.0 mi ESE 8.1 mph - N/A   Clear
10:55 PM 54.5 °F - 45.0 °F 70% 30.08 in 10.0 mi ESE 8.1 mph - N/A   Clear
11:15 PM 54.5 °F - 45.7 °F 72% 30.07 in 10.0 mi ESE 9.2 mph - N/A   Clear
11:35 PM 55.4 °F - 46.6 °F 72% 30.07 in 10.0 mi East 8.1 mph - N/A   Clear
11:55 PM 55.0 °F - 46.8 °F 74% 30.07 in 10.0 mi East 8.1 mph - N/A   Clear